Showing default

ORBCOMM FM 107, 40087

Orbit data source: Space-Track

ORBCOMM FM 107, 40087 is a payload satellite owned by Orbcomm (US) in LEO that was launched on Mon, 14 Jul 2014 UTC via an FALCON 9 launch vehicle from the Air Force Eastern Test Range (AFETR). Payloads include a variety of satellites, spacecraft, and rockets equipped with specific instruments for various scientific and technological missions. These include communications satellites like Starlink; space stations such as the ISS; scientific satellites like the Hubble; Earth observation satellites from companies like Planet Labs, Umbra, and HawkEye 360; GPS; miniature CubeSats for education and research; and military/defense satellites.

Loading next visibility...
ORBCOMM FM 107 details
Identifier
40087, 2014-040B
Orbit
LEO
Last TLE update15 hours ago
Origin
Flag of USOrbcomm (US / ORB)
ManufacturerSNC Louisville
MissionOperational Commercial Communications
Bus & MotorSN-100A, Unknown motor
Mass172 kg wet, 158 kg dry
Launch date (UTC)
2014-07-14 (10 years ago)
Launch vehicle
FALCON 9
Launch site
Air Force Eastern Test Range (AFETR)
Object type
Payload
Rocket body
Debris
Shape & HBRBox + 1 Pan + 1 Ant, 13 m
Radar Cross Section2.222 m², Medium (>0.1 m² and < 1m²)

Expand to show TLE details & history

TLE from 15 hours ago
0 ORBCOMM FM 107
1 40087U 14040B   24361.04505346  .00002043  00000-0  48019-3 0  9995
2 40087  47.0038 114.7202 0002237 230.2846 129.7842 14.57663859555876
Epoch: 2024-12-26T01:04Z
Definitive object data (Epoch: 2024-12-26T01:04:52.618Z)
Latitude-0.00007°
Longitude3.47081°
Altitude701.956 km
Speed7.506 km/s
True Right ascension07h 38m 52s
True Declination0° 00' 00"
Sunlit
Object was in full shadow at TLE epoch
Visualization TLE readout
Latitude-12.49297°
Longitude-11.28336°
Altitude703.93 km
Speed7.504 km/s
Apparent Right ascension05h 14m 23s
Apparent Declination-27° 43' 49"
Sunlit
Object is in full shadow
Visualization observer readout
Local Sidereal Time15:10:34
Azimuth285.958° WNW
Elevation-61.736°
Doppler factor1
Orbital elements
Apogee altitude703.545 km
Perigee altitude700.377 km
Semi-major axis7,080.098 km
Eccentricity0.0002237
Inclination47.0038°
RAAN114.7202°
Arg. of periapsis230.2846°
True anomaly129.8039°
Mean anomaly129.7842°
Eccentric anomaly129.79405°
Mean motion3.64321 °/min
BSTAR0.00048019
Orbital period98.81 mins
Loading maneuver chart data...
Loading historical data...
Loading historical data...
Loading historical data...
Loading historical data...
Loading historical data...
Loading historical data...
Loading historical data...

ORBCOMM FM 107 Visibility forecast

Observer location: undefined°, undefined

Span
Click to sort rows by Start time (UTC) header in descending order
Start Az.
Max El. time (UTC)
Max El. Az.
Max El.
End time (UTC)
End Az.
9 mins2024-12-26 16:20:30.158Z299.962° NW2024-12-26 16:25:30.158Z77.538° E43.214°2024-12-26 16:29:30.158Z112.31° ESE
6 mins2024-12-26 18:05:30.158Z267.818° W2024-12-26 18:08:30.158Z217.787° SW24.207°2024-12-26 18:11:30.158Z173.002° S
8 mins2024-12-27 10:09:30.158Z206.185° SW2024-12-27 10:13:30.158Z128.404° SE33.29°2024-12-27 10:17:30.158Z73.203° E
7 mins2024-12-27 11:53:30.158Z266.811° W2024-12-27 11:56:30.158Z334.715° NNW40.148°2024-12-27 12:00:30.158Z55.626° ENE
7 mins2024-12-27 13:37:30.158Z300.518° NW2024-12-27 13:40:30.158Z351.503° N30.43°2024-12-27 13:44:30.158Z61.374° ENE
8 mins2024-12-27 15:21:30.158Z306.72° NW2024-12-27 15:25:30.158Z42.685° NE38.161°2024-12-27 15:29:30.158Z96.203° ESE
|